Location: Ahausen
(50.4985°N, 8.2722°E)
Time: 00:56:02
(UTC+00:00)

SJ 16-02 - Pass Details

Date: 18 September 2020
Orbit: 606 x 616 km, 75.0° (Epoch: 23 October)

Event Time Altitude Azimuth Distance (km) Brightness Sun altitude
Rises 19:38:31 0° 254° (WSW) 2,862 5.5 -19.9°
Reaches altitude 10° 19:41:40 10° 278° (W) 1,962 4.9 -20.3°
Maximum altitude 19:44:09 15° 313° (NW) 1,677 4.6 -20.7°
Drops below altitude 10° 19:46:38 10° 348° (NNW) 1,969 4.5 -21.0°
Sets 19:49:49 0° 12° (NNE) 2,878 5.0 -21.4°
